This is the latest recevied weather packets stored in our database for station/object K7MT-WX. If no packets are shown the sender has not sent any weather packets the latest 10 day(s).
| Time | Temp. | Humidity | Pressure | Rain* | Wind** | Luminosity | Snow |
|---|---|---|---|---|---|---|---|
| 1788404807 | 15° C | 57% | 1009.4 hPa | 0 mm | - | - | - |
| 1788403907 | 15° C | 56% | 1009.4 hPa | 0 mm | - | - | - |
| 1788403007 | 15° C | 57% | 1009.3 hPa | 0 mm | - | - | - |
| 1788402107 | 15.56° C | 55% | 1009.4 hPa | 0 mm | - | - | - |
| 1788401207 | 15.56° C | 55% | 1009.4 hPa | 0 mm | - | - | - |
| 1788400307 | 16.67° C | 53% | 1009.3 hPa | 0 mm | - | - | - |
| 1788399407 | 17.22° C | 54% | 1009.3 hPa | 0 mm | - | - | - |
| 1788398507 | 17.78° C | 54% | 1009.3 hPa | 0 mm | - | - | - |
| 1788397607 | 18.33° C | 51% | 1009.2 hPa | 0 mm | - | - | - |
| 1788396707 | 18.33° C | 51% | 1009 hPa | 0 mm | - | - | - |
| 1788395796 | 18.89° C | 51% | 1009.3 hPa | 0 mm | - | - | - |
| 1788394896 | 19.44° C | 43% | 1009.4 hPa | 0 mm | - | - | - |
| 1788393996 | 19.44° C | 45% | 1009.7 hPa | 0 mm | - | - | - |
| 1788393096 | 18.33° C | 47% | 1010 hPa | 0 mm | - | - | - |
| 1788392196 | 18.33° C | 51% | 1010 hPa | 0 mm | - | - | - |
| 1788391296 | 18.89° C | 48% | 1010 hPa | 0 mm | - | - | - |
| 1788390396 | 18.33° C | 49% | 1010 hPa | 0 mm | - | - | - |
| 1788389504 | 18.33° C | 52% | 1009.9 hPa | 0 mm | - | - | - |
| 1788388596 | 17.78° C | 54% | 1009.9 hPa | 0 mm | - | - | - |
| 1788387696 | 16.67° C | 60% | 1010.4 hPa | 0 mm | - | - | - |
| 1788386796 | 15.56° C | 58% | 1009.9 hPa | 1.02 mm | - | - | - |
| 1788385896 | 14.44° C | 68% | 1009.9 hPa | 1.02 mm | - | - | - |
| 1788384996 | 13.89° C | 64% | 1008.4 hPa | 1.02 mm | - | - | - |
| 1788384096 | 13.89° C | 68% | 1009 hPa | 1.02 mm | - | - | - |
| 1788383196 | 16.67° C | 54% | 1008.9 hPa | 0 mm | - | - | - |
* Rain latest hour (hover to see other rain measurements)
** Current wind speed in m/s (hover to see current wind gust speed)